| time (UTC) | temp C | wind direction | speed KPH | gust KPH | rain 1hr cm | rain 24hr cm | rain mn cm | humidity % | barometer mb |
| 20260510203339 | 30 | 20 | 1.6 | 1.6 | 0.00 | 0.00 | 0.00 | 39 | 1009.8 |
| 20260510202834 | 29 | 14 | 1.6 | 3.2 | 0.00 | 0.00 | 0.00 | 41 | 1009.5 |
| 20260510202329 | 29 | 22 | 0.0 | 3.2 | 0.00 | 0.00 | 0.00 | 39 | 1009.5 |
| 20260510201827 | 29 | 20 | 1.6 | 3.2 | 0.00 | 0.00 | 0.00 | 40 | 1009.7 |
| 20260510201323 | 30 | 1 | 1.6 | 3.2 | 0.00 | 0.00 | 0.00 | 40 | 1009.7 |
| 20260510200820 | 29 | 344 | 3.2 | 3.2 | 0.00 | 0.00 | 0.00 | 40 | 1009.7 |
| 20260510200318 | 28 | 19 | 1.6 | 3.2 | 0.00 | 0.00 | 0.00 | 39 | 1009.8 |
| 20260510195814 | 28 | 336 | 3.2 | 8.0 | 0.00 | 0.00 | 0.00 | 41 | 1009.8 |
| 20260510195310 | 29 | 316 | 4.8 | 8.0 | 0.00 | 0.00 | 0.00 | 45 | 1010.0 |
| 20260510194805 | 31 | 17 | 1.6 | 1.6 | 0.00 | 0.00 | 0.00 | 39 | 1009.8 |
| 20260510194302 | 31 | 42 | 0.0 | 1.6 | 0.00 | 0.00 | 0.00 | 40 | 1009.8 |
| 20260510193757 | 30 | 57 | 1.6 | 3.2 | 0.00 | 0.00 | 0.00 | 39 | 1010.3 |
| 20260510193252 | 28 | 32 | 0.0 | 0.0 | 0.00 | 0.00 | 0.00 | 41 | 1010.2 |
| 20260510192748 | 28 | 13 | 1.6 | 1.6 | 0.00 | 0.00 | 0.00 | 42 | 1010.3 |
| 20260510192244 | 31 | 4 | 1.6 | 3.2 | 0.00 | 0.00 | 0.00 | 38 | 1010.2 |
| 20260510191740 | 30 | 29 | 0.0 | 1.6 | 0.00 | 0.00 | 0.00 | 39 | 1010.2 |
| 20260510191236 | 30 | 20 | 0.0 | 1.6 | 0.00 | 0.00 | 0.00 | 41 | 1010.4 |
| 20260510190734 | 28 | 29 | 1.6 | 3.2 | 0.00 | 0.00 | 0.00 | 41 | 1010.4 |
| 20260510190231 | 29 | 19 | 1.6 | 3.2 | 0.00 | 0.00 | 0.00 | 43 | 1010.4 |
| 20260510185727 | 30 | 29 | 0.0 | 1.6 | 0.00 | 0.00 | 0.00 | 41 | 1010.3 |
| 20260510185226 | 30 | 46 | 0.0 | 1.6 | 0.00 | 0.00 | 0.00 | 43 | 1010.6 |
| 20260510184722 | 28 | 59 | 1.6 | 3.2 | 0.00 | 0.00 | 0.00 | 44 | 1010.3 |
| 20260510184219 | 28 | 54 | 0.0 | 3.2 | 0.00 | 0.00 | 0.00 | 45 | 1010.4 |
| 20260510183714 | 28 | 50 | 1.6 | 3.2 | 0.00 | 0.00 | 0.00 | 46 | 1010.5 |
| 20260510183208 | 28 | 66 | 1.6 | 4.8 | 0.00 | 0.00 | 0.00 | 47 | 1010.6 |
| 20260510182706 | 28 | 73 | 1.6 | 4.8 | 0.00 | 0.00 | 0.00 | 48 | 1010.7 |
| 20260510182201 | 27 | 71 | 1.6 | 3.2 | 0.00 | 0.00 | 0.00 | 48 | 1010.7 |
| 20260510181658 | 27 | 77 | 3.2 | 3.2 | 0.00 | 0.00 | 0.00 | 47 | 1010.6 |
| 20260510181155 | 27 | 69 | 1.6 | 3.2 | 0.00 | 0.00 | 0.00 | 47 | 1010.5 |
| 20260510180651 | 27 | 40 | 1.6 | 1.6 | 0.00 | 0.00 | 0.00 | 51 | 1010.8 |
| 20260510180149 | 27 | 40 | 1.6 | 1.6 | 0.00 | 0.00 | 0.00 | 47 | 1011.0 |
| 20260510175645 | 27 | 51 | 1.6 | 4.8 | 0.00 | 0.00 | 0.00 | 47 | 1011.0 |
| 20260510175141 | 26 | 32 | 0.0 | 3.2 | 0.00 | 0.00 | 0.00 | 50 | 1011.1 |
| 20260510174638 | 27 | 343 | 4.8 | 8.0 | 0.00 | 0.00 | 0.00 | 51 | 1011.2 |
| 20260510174136 | 27 | 43 | 0.0 | 1.6 | 0.00 | 0.00 | 0.00 | 46 | 1011.1 |
| 20260510173631 | 27 | 59 | 1.6 | 3.2 | 0.00 | 0.00 | 0.00 | 49 | 1011.0 |
| 20260510173127 | 27 | 59 | 1.6 | 3.2 | 0.00 | 0.00 | 0.00 | 47 | 1011.4 |
| 20260510172623 | 26 | 60 | 1.6 | 1.6 | 0.00 | 0.00 | 0.00 | 48 | 1011.4 |
| 20260510172120 | 26 | 47 | 0.0 | 0.0 | 0.00 | 0.00 | 0.00 | 48 | 1011.4 |
| 20260510171616 | 26 | 30 | 0.0 | 1.6 | 0.00 | 0.00 | 0.00 | 50 | 1011.5 |
| 20260510171114 | 25 | 59 | 1.6 | 3.2 | 0.00 | 0.00 | 0.00 | 49 | 1011.5 |
| 20260510170610 | 26 | 353 | 4.8 | 9.7 | 0.00 | 0.00 | 0.00 | 48 | 1011.6 |
| 20260510170107 | 26 | 21 | 0.0 | 0.0 | 0.00 | 0.00 | 0.00 | 48 | 1011.7 |
| 20260510165603 | 26 | 19 | 1.6 | 1.6 | 0.00 | 0.00 | 0.00 | 48 | 1011.8 |
| 20260510165058 | 25 | 25 | 0.0 | 1.6 | 0.00 | 0.00 | 0.00 | 48 | 1011.8 |
| 20260510164556 | 25 | 16 | 1.6 | 1.6 | 0.00 | 0.00 | 0.00 | 49 | 1011.8 |
| 20260510164052 | 25 | 29 | 1.6 | 3.2 | 0.00 | 0.00 | 0.00 | 51 | 1011.7 |
| 20260510163548 | 25 | 25 | 1.6 | 1.6 | 0.00 | 0.00 | 0.00 | 50 | 1011.9 |
| 20260510163044 | 25 | 13 | 1.6 | 3.2 | 0.00 | 0.00 | 0.00 | 50 | 1011.9 |
| 20260510162539 | 25 | 326 | 4.8 | 4.8 | 0.00 | 0.00 | 0.00 | 50 | 1011.8 |
| 20260510162036 | 25 | 10 | 1.6 | 3.2 | 0.00 | 0.00 | 0.00 | 50 | 1012.0 |
| 20260510161532 | 25 | 14 | 1.6 | 3.2 | 0.00 | 0.00 | 0.00 | 50 | 1011.8 |
| 20260510161029 | 25 | 11 | 1.6 | 3.2 | 0.00 | 0.00 | 0.00 | 51 | 1011.9 |
| 20260510160526 | 25 | 16 | 1.6 | 1.6 | 0.00 | 0.00 | 0.00 | 51 | 1011.8 |
| 20260510160025 | 26 | 19 | 0.0 | 1.6 | 0.00 | 0.00 | 0.00 | 50 | 1012.0 |
| 20260510155522 | 26 | 21 | 3.2 | 3.2 | 0.00 | 0.00 | 0.00 | 49 | 1011.9 |
| 20260510155018 | 26 | 32 | 0.0 | 1.6 | 0.00 | 0.00 | 0.00 | 50 | 1011.7 |
| 20260510154515 | 25 | 28 | 0.0 | 1.6 | 0.00 | 0.00 | 0.00 | 52 | 1011.9 |
| 20260510154014 | 25 | 60 | 1.6 | 1.6 | 0.00 | 0.00 | 0.00 | 54 | 1012.0 |
| 20260510153504 | 24 | 74 | 3.2 | 3.2 | 0.00 | 0.00 | 0.00 | 58 | 1011.8 |
| 20260510153002 | 24 | 49 | 0.0 | 0.0 | 0.00 | 0.00 | 0.00 | 61 | 1012.1 |
| 20260510152458 | 23 | 45 | 1.6 | 1.6 | 0.00 | 0.00 | 0.00 | 63 | 1012.0 |
| 20260510151954 | 23 | 24 | 0.0 | 0.0 | 0.00 | 0.00 | 0.00 | 66 | 1011.8 |
| 20260510151452 | 23 | 354 | 3.2 | 3.2 | 0.00 | 0.00 | 0.00 | 68 | 1012.0 |
| 20260510150948 | 22 | 8 | 3.2 | 3.2 | 0.00 | 0.00 | 0.00 | 67 | 1012.0 |
| 20260510150444 | 22 | 13 | 1.6 | 3.2 | 0.00 | 0.00 | 0.00 | 71 | 1011.7 |
| 20260510145940 | 22 | 358 | 3.2 | 3.2 | 0.00 | 0.00 | 0.00 | 72 | 1012.0 |
| 20260510145437 | 22 | 22 | 0.0 | 1.6 | 0.00 | 0.00 | 0.00 | 73 | 1012.1 |
| 20260510144933 | 21 | 22 | 1.6 | 1.6 | 0.00 | 0.00 | 0.00 | 74 | 1012.0 |
| 20260510144430 | 21 | 14 | 1.6 | 3.2 | 0.00 | 0.00 | 0.00 | 75 | 1011.7 |
| 20260510143925 | 21 | 18 | 0.0 | 1.6 | 0.00 | 0.00 | 0.00 | 76 | 1011.9 |
| 20260510143421 | 21 | 23 | 1.6 | 1.6 | 0.00 | 0.00 | 0.00 | 76 | 1011.6 |
| 20260510142918 | 21 | 23 | 1.6 | 1.6 | 0.00 | 0.00 | 0.00 | 77 | 1011.9 |
| 20260510142415 | 20 | 16 | 1.6 | 3.2 | 0.00 | 0.00 | 0.00 | 77 | 1012.0 |
| 20260510141911 | 20 | 17 | 1.6 | 1.6 | 0.00 | 0.00 | 0.00 | 78 | 1011.9 |
| 20260510141408 | 20 | 24 | 1.6 | 1.6 | 0.00 | 0.00 | 0.00 | 79 | 1011.8 |
| 20260510140900 | 20 | 12 | 1.6 | 3.2 | 0.00 | 0.00 | 0.00 | 79 | 1011.7 |
| 20260510140356 | 20 | 17 | 1.6 | 3.2 | 0.00 | 0.00 | 0.00 | 80 | 1011.7 |
| 20260510135855 | 20 | 25 | 0.0 | 1.6 | 0.00 | 0.00 | 0.00 | 81 | 1012.0 |
| 20260510135351 | 19 | 21 | 0.0 | 1.6 | 0.00 | 0.00 | 0.00 | 81 | 1011.6 |
| 20260510134849 | 19 | 21 | 1.6 | 1.6 | 0.00 | 0.00 | 0.00 | 83 | 1011.7 |
| 20260510134345 | 19 | 21 | 1.6 | 1.6 | 0.00 | 0.00 | 0.00 | 83 | 1011.7 |
| 20260510133841 | 19 | 21 | 1.6 | 1.6 | 0.00 | 0.00 | 0.00 | 84 | 1011.7 |
| 20260510133338 | 18 | 15 | 1.6 | 3.2 | 0.00 | 0.00 | 0.00 | 84 | 1011.7 |
| 20260510132833 | 18 | 11 | 1.6 | 3.2 | 0.00 | 0.00 | 0.00 | 84 | 1011.8 |
| 20260510132332 | 18 | 19 | 1.6 | 1.6 | 0.00 | 0.00 | 0.00 | 85 | 1011.7 |
| 20260510131828 | 18 | 29 | 0.0 | 3.2 | 0.00 | 0.00 | 0.00 | 85 | 1012.0 |
| 20260510131326 | 18 | 15 | 1.6 | 3.2 | 0.00 | 0.00 | 0.00 | 85 | 1011.7 |
| 20260510130822 | 18 | 22 | 1.6 | 3.2 | 0.00 | 0.00 | 0.00 | 86 | 1011.7 |
| 20260510130319 | 17 | 31 | 1.6 | 1.6 | 0.00 | 0.00 | 0.00 | 87 | 1011.9 |
| 20260510125816 | 17 | 31 | 0.0 | 4.8 | 0.00 | 0.00 | 0.00 | 88 | 1011.7 |
| 20260510125312 | 17 | 354 | 4.8 | 4.8 | 0.00 | 0.00 | 0.00 | 89 | 1011.6 |
| 20260510124809 | 17 | 319 | 4.8 | 4.8 | 0.00 | 0.00 | 0.00 | 90 | 1011.7 |
| 20260510124306 | 17 | 27 | 1.6 | 1.6 | 0.00 | 0.00 | 0.00 | 91 | 1011.8 |
| 20260510123801 | 17 | 12 | 1.6 | 3.2 | 0.00 | 0.00 | 0.00 | 92 | 1011.5 |
| 20260510123257 | 17 | 25 | 1.6 | 3.2 | 0.00 | 0.00 | 0.00 | 93 | 1011.6 |
| 20260510122753 | 17 | 25 | 0.0 | 1.6 | 0.00 | 0.00 | 0.00 | 93 | 1011.5 |
| 20260510122250 | 16 | 28 | 0.0 | 1.6 | 0.00 | 0.00 | 0.00 | 93 | 1011.5 |
| 20260510121746 | 16 | 28 | 0.0 | 1.6 | 0.00 | 0.00 | 0.00 | 93 | 1011.4 |
| 20260510121244 | 16 | 16 | 1.6 | 1.6 | 0.00 | 0.00 | 0.00 | 93 | 1011.3 |
| 20260510120741 | 16 | 20 | 1.6 | 3.2 | 0.00 | 0.00 | 0.00 | 93 | 1011.3 |
| 20260510120238 | 16 | 23 | 0.0 | 1.6 | 0.00 | 0.00 | 0.00 | 93 | 1011.4 |
| 20260510115733 | 16 | 23 | 1.6 | 1.6 | 0.00 | 0.00 | 0.00 | 93 | 1011.2 |
| 20260510115232 | 16 | 21 | 1.6 | 1.6 | 0.00 | 0.00 | 0.00 | 93 | 1011.3 |
| 20260510114727 | 16 | 14 | 1.6 | 1.6 | 0.00 | 0.00 | 0.00 | 93 | 1011.1 |
| 20260510114224 | 16 | 337 | 3.2 | 3.2 | 0.00 | 0.00 | 0.00 | 93 | 1011.0 |
| 20260510113719 | 16 | 346 | 3.2 | 3.2 | 0.00 | 0.00 | 0.00 | 93 | 1011.0 |
| 20260510113216 | 16 | 14 | 1.6 | 1.6 | 0.00 | 0.00 | 0.00 | 93 | 1010.9 |
| 20260510112712 | 16 | 10 | 1.6 | 1.6 | 0.00 | 0.00 | 0.00 | 93 | 1010.8 |
| 20260510112210 | 16 | 14 | 0.0 | 1.6 | 0.00 | 0.00 | 0.00 | 93 | 1010.8 |
| 20260510111705 | 16 | 13 | 0.0 | 1.6 | 0.00 | 0.00 | 0.00 | 93 | 1010.5 |
| 20260510111203 | 16 | 13 | 0.0 | 1.6 | 0.00 | 0.00 | 0.00 | 93 | 1010.6 |
| 20260510110656 | 16 | 17 | 0.0 | 1.6 | 0.00 | 0.00 | 0.00 | 93 | 1010.7 |
| 20260510110155 | 16 | 17 | 0.0 | 0.0 | 0.00 | 0.00 | 0.00 | 93 | 1010.6 |
| 20260510105650 | 16 | 17 | 0.0 | 1.6 | 0.00 | 0.00 | 0.00 | 93 | 1010.3 |
| 20260510105149 | 16 | 17 | 0.0 | 1.6 | 0.00 | 0.00 | 0.00 | 93 | 1010.5 |
| 20260510104647 | 16 | 17 | 0.0 | 1.6 | 0.00 | 0.00 | 0.00 | 92 | 1010.3 |
| 20260510104144 | 16 | 16 | 1.6 | 1.6 | 0.00 | 0.00 | 0.00 | 92 | 1010.1 |
| 20260510103640 | 16 | 26 | 0.0 | 0.0 | 0.00 | 0.00 | 0.00 | 92 | 1010.1 |
| 20260510103137 | 16 | 25 | 1.6 | 1.6 | 0.00 | 0.00 | 0.00 | 92 | 1010.2 |
| 20260510102632 | 16 | 33 | 0.0 | 0.0 | 0.00 | 0.00 | 0.00 | 92 | 1009.8 |
| 20260510102128 | 16 | 33 | 1.6 | 1.6 | 0.00 | 0.00 | 0.00 | 92 | 1009.7 |
| 20260510101626 | 16 | 38 | 0.0 | 0.0 | 0.00 | 0.00 | 0.00 | 92 | 1009.7 |
| 20260510101124 | 16 | 40 | 0.0 | 0.0 | 0.00 | 0.00 | 0.00 | 92 | 1009.7 |
| 20260510100620 | 16 | 40 | 0.0 | 0.0 | 0.00 | 0.00 | 0.00 | 92 | 1009.6 |
| 20260510100118 | 16 | 43 | 0.0 | 1.6 | 0.00 | 0.00 | 0.00 | 92 | 1009.4 |
| 20260510095613 | 16 | 43 | 0.0 | 1.6 | 0.00 | 0.00 | 0.00 | 92 | 1009.5 |
| 20260510095113 | 16 | 40 | 0.0 | 0.0 | 0.00 | 0.00 | 0.00 | 92 | 1009.4 |
| 20260510094612 | 16 | 42 | 0.0 | 0.0 | 0.00 | 0.00 | 0.00 | 92 | 1009.3 |
| 20260510094108 | 16 | 20 | 0.0 | 1.6 | 0.00 | 0.00 | 0.00 | 92 | 1009.6 |
| 20260510093604 | 16 | 23 | 0.0 | 1.6 | 0.00 | 0.00 | 0.00 | 92 | 1009.4 |
| 20260510093101 | 16 | 27 | 0.0 | 0.0 | 0.00 | 0.00 | 0.00 | 91 | 1009.3 |
| 20260510092558 | 17 | 27 | 0.0 | 1.6 | 0.00 | 0.00 | 0.00 | 92 | 1009.4 |
| 20260510092057 | 17 | 1 | 1.6 | 3.2 | 0.00 | 0.00 | 0.00 | 92 | 1009.2 |
| 20260510091555 | 17 | 355 | 3.2 | 3.2 | 0.00 | 0.00 | 0.00 | 92 | 1009.4 |
| 20260510091051 | 17 | 315 | 4.8 | 4.8 | 0.00 | 0.00 | 0.00 | 92 | 1009.1 |
| 20260510090548 | 17 | 4 | 1.6 | 3.2 | 0.00 | 0.00 | 0.00 | 92 | 1009.3 |
| 20260510090043 | 17 | 9 | 1.6 | 3.2 | 0.00 | 0.00 | 0.00 | 91 | 1009.1 |
| 20260510085538 | 17 | 9 | 1.6 | 3.2 | 0.00 | 0.00 | 0.00 | 92 | 1008.9 |
| 20260510085035 | 17 | 358 | 3.2 | 3.2 | 0.00 | 0.00 | 0.00 | 92 | 1008.9 |
| 20260510084531 | 17 | 23 | 0.0 | 0.0 | 0.00 | 0.00 | 0.00 | 92 | 1008.7 |
| 20260510084028 | 17 | 23 | 0.0 | 0.0 | 0.00 | 0.00 | 0.00 | 92 | 1008.6 |
| 20260510083525 | 17 | 24 | 0.0 | 0.0 | 0.00 | 0.00 | 0.00 | 92 | 1008.9 |
| 20260510083021 | 17 | 28 | 0.0 | 0.0 | 0.00 | 0.00 | 0.00 | 92 | 1008.6 |
| 20260510082519 | 17 | 33 | 0.0 | 0.0 | 0.00 | 0.00 | 0.00 | 92 | 1008.7 |
| 20260510082018 | 17 | 33 | 0.0 | 0.0 | 0.00 | 0.00 | 0.00 | 92 | 1008.8 |
| 20260510081514 | 17 | 34 | 0.0 | 0.0 | 0.00 | 0.00 | 0.00 | 92 | 1008.6 |
| 20260510081010 | 17 | 16 | 1.6 | 3.2 | 0.00 | 0.00 | 0.00 | 92 | 1008.5 |
| 20260510080509 | 17 | 316 | 4.8 | 4.8 | 0.00 | 0.00 | 0.00 | 92 | 1008.7 |
| 20260510080006 | 17 | 31 | 0.0 | 3.2 | 0.00 | 0.00 | 0.00 | 92 | 1008.7 |
| 20260510075503 | 17 | 19 | 1.6 | 3.2 | 0.00 | 0.00 | 0.00 | 92 | 1008.6 |
| 20260510075000 | 17 | 4 | 1.6 | 3.2 | 0.00 | 0.00 | 0.00 | 92 | 1008.4 |
| 20260510074457 | 17 | 9 | 3.2 | 3.2 | 0.00 | 0.00 | 0.00 | 92 | 1008.5 |
| 20260510073953 | 17 | 3 | 1.6 | 3.2 | 0.00 | 0.00 | 0.00 | 92 | 1008.3 |
| 20260510073449 | 17 | 43 | 0.0 | 0.0 | 0.00 | 0.00 | 0.00 | 92 | 1008.3 |
| 20260510072946 | 17 | 43 | 0.0 | 1.6 | 0.00 | 0.00 | 0.00 | 92 | 1008.2 |
| 20260510072443 | 17 | 41 | 0.0 | 0.0 | 0.00 | 0.00 | 0.00 | 92 | 1008.3 |
| 20260510071938 | 17 | 46 | 0.0 | 0.0 | 0.00 | 0.00 | 0.00 | 92 | 1008.3 |
| 20260510071435 | 17 | 12 | 1.6 | 3.2 | 0.00 | 0.00 | 0.00 | 92 | 1008.3 |
| 20260510070933 | 17 | 359 | 1.6 | 3.2 | 0.00 | 0.00 | 0.00 | 91 | 1008.3 |
| 20260510070430 | 17 | 2 | 3.2 | 3.2 | 0.00 | 0.00 | 0.00 | 91 | 1008.3 |
| 20260510065926 | 17 | 30 | 0.0 | 0.0 | 0.00 | 0.00 | 0.00 | 91 | 1008.4 |
| 20260510065423 | 17 | 30 | 0.0 | 0.0 | 0.00 | 0.00 | 0.00 | 91 | 1008.4 |
| 20260510064919 | 17 | 30 | 0.0 | 0.0 | 0.00 | 0.00 | 0.00 | 91 | 1008.3 |
| 20260510064417 | 17 | 30 | 0.0 | 0.0 | 0.00 | 0.00 | 0.00 | 91 | 1008.4 |
| 20260510063913 | 17 | 29 | 0.0 | 0.0 | 0.00 | 0.00 | 0.00 | 91 | 1008.5 |
| 20260510063409 | 17 | 29 | 0.0 | 0.0 | 0.00 | 0.00 | 0.00 | 91 | 1008.2 |
| 20260510062907 | 17 | 29 | 0.0 | 0.0 | 0.00 | 0.00 | 0.00 | 91 | 1008.4 |
| 20260510062401 | 17 | 30 | 0.0 | 0.0 | 0.00 | 0.00 | 0.00 | 91 | 1008.4 |
| 20260510061857 | 17 | 30 | 0.0 | 0.0 | 0.00 | 0.00 | 0.00 | 91 | 1008.1 |
| 20260510061354 | 17 | 30 | 0.0 | 0.0 | 0.00 | 0.00 | 0.00 | 91 | 1008.5 |
| 20260510060850 | 17 | 29 | 0.0 | 0.0 | 0.00 | 0.00 | 0.00 | 90 | 1008.4 |
| 20260510060347 | 17 | 29 | 0.0 | 0.0 | 0.00 | 0.00 | 0.00 | 90 | 1008.4 |
| 20260510055844 | 17 | 29 | 0.0 | 0.0 | 0.00 | 0.00 | 0.00 | 90 | 1008.6 |
| 20260510055343 | 17 | 29 | 0.0 | 0.0 | 0.00 | 0.00 | 0.00 | 90 | 1008.3 |
| 20260510054842 | 17 | 29 | 0.0 | 0.0 | 0.00 | 0.00 | 0.00 | 90 | 1008.3 |
| 20260510054338 | 17 | 29 | 0.0 | 0.0 | 0.00 | 0.00 | 0.00 | 90 | 1008.5 |
| 20260510053833 | 17 | 29 | 0.0 | 0.0 | 0.00 | 0.00 | 0.00 | 90 | 1008.6 |
| 20260510053329 | 17 | 30 | 0.0 | 0.0 | 0.00 | 0.00 | 0.00 | 90 | 1008.7 |
| 20260510052826 | 17 | 29 | 0.0 | 0.0 | 0.00 | 0.00 | 0.00 | 90 | 1008.7 |
| 20260510052321 | 17 | 29 | 0.0 | 0.0 | 0.00 | 0.00 | 0.00 | 90 | 1008.7 |
| 20260510051818 | 17 | 30 | 0.0 | 0.0 | 0.00 | 0.00 | 0.00 | 90 | 1008.5 |
| 20260510051315 | 17 | 29 | 0.0 | 0.0 | 0.00 | 0.00 | 0.00 | 90 | 1008.9 |
| 20260510050812 | 17 | 29 | 0.0 | 1.6 | 0.00 | 0.00 | 0.00 | 90 | 1008.6 |
| 20260510050308 | 17 | 29 | 0.0 | 0.0 | 0.00 | 0.00 | 0.00 | 90 | 1008.7 |
| 20260510045805 | 17 | 30 | 0.0 | 0.0 | 0.00 | 0.00 | 0.00 | 89 | 1008.7 |
| 20260510045305 | 17 | 30 | 0.0 | 0.0 | 0.00 | 0.00 | 0.00 | 89 | 1008.8 |
| 20260510044759 | 17 | 29 | 0.0 | 0.0 | 0.00 | 0.00 | 0.00 | 89 | 1008.6 |
| 20260510044256 | 17 | 29 | 0.0 | 0.0 | 0.00 | 0.00 | 0.00 | 89 | 1008.7 |
| 20260510043752 | 17 | 29 | 0.0 | 0.0 | 0.00 | 0.00 | 0.00 | 89 | 1008.7 |
| 20260510043248 | 17 | 29 | 0.0 | 0.0 | 0.00 | 0.00 | 0.00 | 89 | 1008.7 |
| 20260510042746 | 17 | 30 | 0.0 | 0.0 | 0.00 | 0.00 | 0.00 | 89 | 1008.8 |
| 20260510042241 | 17 | 30 | 0.0 | 0.0 | 0.00 | 0.00 | 0.00 | 89 | 1008.7 |
| 20260510041738 | 17 | 30 | 0.0 | 0.0 | 0.00 | 0.00 | 0.00 | 89 | 1008.6 |
| 20260510041236 | 17 | 30 | 0.0 | 0.0 | 0.00 | 0.00 | 0.00 | 89 | 1008.7 |
| 20260510040733 | 17 | 30 | 0.0 | 0.0 | 0.00 | 0.00 | 0.00 | 89 | 1008.7 |
| 20260510040230 | 17 | 30 | 0.0 | 0.0 | 0.00 | 0.00 | 0.00 | 89 | 1008.7 |
| 20260510035725 | 17 | 30 | 0.0 | 0.0 | 0.00 | 0.00 | 0.00 | 89 | 1008.6 |
| 20260510035221 | 18 | 30 | 0.0 | 0.0 | 0.00 | 0.00 | 0.00 | 89 | 1008.6 |
| 20260510034717 | 18 | 30 | 0.0 | 0.0 | 0.00 | 0.00 | 0.00 | 89 | 1008.6 |
| 20260510034215 | 18 | 30 | 0.0 | 0.0 | 0.00 | 0.00 | 0.00 | 88 | 1008.6 |
| 20260510033711 | 18 | 30 | 0.0 | 0.0 | 0.00 | 0.00 | 0.00 | 88 | 1008.6 |
| 20260510033209 | 18 | 30 | 0.0 | 0.0 | 0.00 | 0.00 | 0.00 | 88 | 1008.6 |
| 20260510032705 | 17 | 30 | 0.0 | 0.0 | 0.00 | 0.00 | 0.00 | 88 | 1008.6 |
| 20260510032201 | 18 | 30 | 0.0 | 0.0 | 0.00 | 0.00 | 0.00 | 88 | 1008.5 |
| 20260510031655 | 18 | 30 | 0.0 | 0.0 | 0.00 | 0.00 | 0.00 | 88 | 1008.4 |
| 20260510031152 | 18 | 27 | 0.0 | 0.0 | 0.00 | 0.00 | 0.00 | 87 | 1008.8 |
| 20260510030646 | 18 | 27 | 0.0 | 0.0 | 0.00 | 0.00 | 0.00 | 87 | 1008.7 |
| 20260510030144 | 18 | 27 | 0.0 | 0.0 | 0.00 | 0.00 | 0.00 | 87 | 1008.6 |
| 20260510025641 | 18 | 27 | 0.0 | 0.0 | 0.00 | 0.00 | 0.00 | 87 | 1008.8 |
| 20260510025139 | 18 | 27 | 0.0 | 0.0 | 0.00 | 0.00 | 0.00 | 87 | 1008.5 |
| 20260510024635 | 18 | 27 | 0.0 | 0.0 | 0.00 | 0.00 | 0.00 | 87 | 1008.7 |
| 20260510024132 | 18 | 27 | 0.0 | 0.0 | 0.00 | 0.00 | 0.00 | 86 | 1008.5 |
| 20260510023628 | 18 | 27 | 0.0 | 0.0 | 0.00 | 0.00 | 0.00 | 86 | 1008.6 |
| 20260510023125 | 18 | 27 | 0.0 | 0.0 | 0.00 | 0.00 | 0.00 | 86 | 1008.4 |
| 20260510022625 | 18 | 27 | 0.0 | 0.0 | 0.00 | 0.00 | 0.00 | 86 | 1008.5 |
| 20260510022120 | 18 | 27 | 0.0 | 0.0 | 0.00 | 0.00 | 0.00 | 85 | 1008.5 |
| 20260510021616 | 19 | 16 | 0.0 | 1.6 | 0.00 | 0.00 | 0.00 | 86 | 1008.5 |
| 20260510021114 | 19 | 15 | 0.0 | 0.0 | 0.00 | 0.00 | 0.00 | 85 | 1008.5 |
| 20260510020614 | 19 | 15 | 0.0 | 0.0 | 0.00 | 0.00 | 0.00 | 85 | 1008.4 |
| 20260510020109 | 19 | 15 | 0.0 | 1.6 | 0.00 | 0.00 | 0.00 | 85 | 1008.4 |
| 20260510015606 | 20 | 14 | 0.0 | 1.6 | 0.00 | 0.00 | 0.00 | 85 | 1008.3 |
| 20260510015102 | 20 | 10 | 1.6 | 3.2 | 0.00 | 0.00 | 0.00 | 84 | 1008.4 |
| 20260510014558 | 20 | 8 | 3.2 | 3.2 | 0.00 | 0.00 | 0.00 | 83 | 1008.1 |
| 20260510014056 | 20 | 13 | 1.6 | 3.2 | 0.00 | 0.00 | 0.00 | 83 | 1008.3 |
| 20260510013550 | 20 | 7 | 1.6 | 3.2 | 0.00 | 0.00 | 0.00 | 83 | 1007.9 |
| 20260510013046 | 20 | 4 | 3.2 | 3.2 | 0.00 | 0.00 | 0.00 | 83 | 1007.9 |
| 20260510012539 | 20 | 355 | 3.2 | 3.2 | 0.00 | 0.00 | 0.00 | 83 | 1007.9 |
| 20260510012037 | 20 | 345 | 3.2 | 3.2 | 0.00 | 0.00 | 0.00 | 82 | 1007.8 |
| 20260510011536 | 20 | 329 | 3.2 | 4.8 | 0.00 | 0.00 | 0.00 | 82 | 1007.9 |
| 20260510011032 | 20 | 346 | 3.2 | 3.2 | 0.00 | 0.00 | 0.00 | 82 | 1007.8 |
| 20260510010529 | 20 | 351 | 3.2 | 3.2 | 0.00 | 0.00 | 0.00 | 82 | 1007.7 |
| 20260510010026 | 20 | 338 | 3.2 | 3.2 | 0.00 | 0.00 | 0.00 | 82 | 1008.0 |
| 20260510005521 | 20 | 349 | 3.2 | 3.2 | 0.00 | 0.00 | 0.00 | 81 | 1007.5 |
| 20260510005020 | 20 | 12 | 1.6 | 3.2 | 0.00 | 0.00 | 0.00 | 81 | 1007.6 |
| 20260510004517 | 20 | 2 | 3.2 | 3.2 | 0.00 | 0.00 | 0.00 | 81 | 1007.4 |
| 20260510004015 | 20 | 359 | 3.2 | 3.2 | 0.00 | 0.00 | 0.00 | 80 | 1007.3 |
| 20260510003511 | 20 | 358 | 1.6 | 3.2 | 0.00 | 0.00 | 0.00 | 79 | 1007.4 |
| 20260510003006 | 20 | 341 | 3.2 | 3.2 | 0.00 | 0.00 | 0.00 | 79 | 1007.0 |
| 20260510002502 | 20 | 330 | 3.2 | 4.8 | 0.00 | 0.00 | 0.00 | 78 | 1007.2 |
| 20260510002000 | 21 | 327 | 3.2 | 4.8 | 0.00 | 0.00 | 0.00 | 79 | 1007.1 |
| 20260510001457 | 21 | 326 | 4.8 | 4.8 | 0.00 | 0.00 | 0.00 | 78 | 1006.9 |
| 20260510000955 | 21 | 332 | 4.8 | 4.8 | 0.00 | 0.00 | 0.00 | 78 | 1006.9 |
| 20260510000450 | 21 | 343 | 3.2 | 4.8 | 0.00 | 0.00 | 0.00 | 78 | 1006.8 |
| 20260509235947 | 21 | 325 | 3.2 | 4.8 | 0.00 | 0.00 | 0.00 | 77 | 1006.6 |
| 20260509235444 | 21 | 329 | 4.8 | 4.8 | 0.00 | 0.00 | 0.00 | 77 | 1006.6 |
| 20260509234940 | 21 | 313 | 4.8 | 4.8 | 0.00 | 0.00 | 0.00 | 77 | 1006.7 |
| 20260509234437 | 21 | 316 | 4.8 | 4.8 | 0.00 | 0.00 | 0.00 | 76 | 1006.5 |
| 20260509233935 | 21 | 306 | 4.8 | 8.0 | 0.00 | 0.00 | 0.00 | 76 | 1006.6 |
| 20260509233432 | 21 | 333 | 3.2 | 4.8 | 0.00 | 0.00 | 0.00 | 76 | 1006.3 |
| 20260509232928 | 21 | 328 | 4.8 | 4.8 | 0.00 | 0.00 | 0.00 | 75 | 1006.6 |
| 20260509232426 | 21 | 345 | 3.2 | 4.8 | 0.00 | 0.00 | 0.00 | 75 | 1006.4 |
| 20260509231921 | 21 | 314 | 4.8 | 8.0 | 0.00 | 0.00 | 0.00 | 75 | 1006.4 |
| 20260509231418 | 21 | 309 | 4.8 | 4.8 | 0.00 | 0.00 | 0.00 | 75 | 1006.3 |
| 20260509230916 | 21 | 288 | 9.7 | 9.7 | 0.00 | 0.00 | 0.00 | 74 | 1006.6 |
| 20260509230413 | 22 | 312 | 4.8 | 4.8 | 0.00 | 0.00 | 0.00 | 74 | 1006.2 |
| 20260509225909 | 22 | 321 | 4.8 | 8.0 | 0.00 | 0.00 | 0.00 | 73 | 1006.4 |
| 20260509225406 | 22 | 292 | 6.4 | 8.0 | 0.00 | 0.00 | 0.00 | 73 | 1006.3 |
| 20260509224901 | 22 | 291 | 8.0 | 9.7 | 0.00 | 0.00 | 0.00 | 73 | 1006.5 |
| 20260509224357 | 22 | 307 | 6.4 | 8.0 | 0.00 | 0.00 | 0.00 | 73 | 1006.4 |
| 20260509223855 | 22 | 309 | 6.4 | 9.7 | 0.00 | 0.00 | 0.00 | 73 | 1006.3 |
| 20260509223351 | 22 | 296 | 6.4 | 11.3 | 0.00 | 0.00 | 0.00 | 73 | 1006.1 |
| 20260509222848 | 22 | 304 | 6.4 | 9.7 | 0.00 | 0.00 | 0.00 | 74 | 1006.3 |
| 20260509222343 | 22 | 308 | 8.0 | 11.3 | 0.00 | 0.00 | 0.00 | 73 | 1005.9 |
| 20260509221838 | 22 | 295 | 8.0 | 9.7 | 0.00 | 0.00 | 0.00 | 72 | 1006.3 |
| 20260509221336 | 22 | 243 | 6.4 | 8.0 | 0.00 | 0.00 | 0.00 | 72 | 1006.4 |
| 20260509220831 | 22 | 296 | 8.0 | 11.3 | 0.00 | 0.00 | 0.00 | 73 | 1006.2 |
| 20260509220327 | 22 | 295 | 6.4 | 9.7 | 0.00 | 0.00 | 0.00 | 73 | 1006.0 |
| 20260509215823 | 22 | 256 | 6.4 | 12.9 | 0.00 | 0.00 | 0.00 | 74 | 1006.3 |
| 20260509215320 | 22 | 316 | 4.8 | 11.3 | 0.00 | 0.00 | 0.00 | 74 | 1006.3 |
| 20260509214817 | 22 | 308 | 6.4 | 11.3 | 0.00 | 0.00 | 0.00 | 75 | 1006.3 |
| 20260509214314 | 22 | 283 | 8.0 | 11.3 | 0.00 | 0.00 | 0.00 | 73 | 1006.2 |
| 20260509213811 | 22 | 319 | 4.8 | 9.7 | 0.00 | 0.00 | 0.00 | 74 | 1006.0 |
| 20260509213306 | 22 | 302 | 8.0 | 12.9 | 0.00 | 0.00 | 0.00 | 74 | 1006.3 |
| 20260509212804 | 22 | 251 | 8.0 | 9.7 | 0.00 | 0.00 | 0.00 | 73 | 1006.1 |
| 20260509212305 | 22 | 278 | 8.0 | 16.1 | 0.00 | 0.00 | 0.00 | 74 | 1006.2 |
| 20260509211756 | 22 | 299 | 4.8 | 9.7 | 0.00 | 0.00 | 0.00 | 74 | 1006.1 |
| 20260509211253 | 22 | 287 | 9.7 | 11.3 | 0.00 | 0.00 | 0.00 | 73 | 1006.0 |
| 20260509210750 | 22 | 294 | 4.8 | 11.3 | 0.00 | 0.00 | 0.00 | 73 | 1006.4 |
| 20260509210248 | 22 | 268 | 6.4 | 14.5 | 0.00 | 0.00 | 0.00 | 73 | 1006.3 |
| 20260509205747 | 22 | 283 | 6.4 | 9.7 | 0.00 | 0.00 | 0.00 | 73 | 1006.3 |
| 20260509205242 | 22 | 255 | 4.8 | 8.0 | 0.00 | 0.00 | 0.00 | 73 | 1006.3 |
| 20260509204738 | 22 | 290 | 8.0 | 11.3 | 0.00 | 0.00 | 0.00 | 73 | 1006.4 |
| 20260509204235 | 22 | 287 | 4.8 | 8.0 | 0.00 | 0.00 | 0.00 | 73 | 1006.2 |
| 20260509203731 | 22 | 330 | 4.8 | 9.7 | 0.00 | 0.00 | 0.00 | 72 | 1006.4 |